Regional Weather Roundup
Issued by NWS

Home | Current Version | Previous Version | Graphics & Text | Print | Product List | Glossary On
Versions: 1 2 3 4 5 6 7 8 9 10 11 12 13 14 15 16 17 18 19 20 21 22 23 24 25 26 27
000
ASUS45 KCYS 031610
RWRWY

WYOMING REGIONAL WEATHER ROUNDUP
NATIONAL WEATHER SERVICE CHEYENNE WY
1000 AM MDT TUE MAY 03 2016

NOTE:  "FAIR" INDICATES FEW OR NO CLOUDS BELOW 12,000 FEET
WITH NO SIGNIFICANT WEATHER AND/OR OBSTRUCTIONS TO VISIBILITY.

WYZ001-031700-
YELLOWSTONE NATIONAL PARK

CITY           SKY/WX    TMP DP  RH WIND       PRES   REMARKS
LK YELLOWSTONE   N/A     36  23  59 E3        30.38R
W YELLOWSTONE  NOT AVBL

$$
WYZ002>013-054>058-071-098>099-031700-
NORTHERN WYOMING

CITY           SKY/WX    TMP DP  RH WIND       PRES   REMARKS
JACKSON        FAIR      48  27  43 CALM      30.33S
CODY           FAIR      61  32  33 CALM      30.21S
GREYBULL       FAIR      58  33  39 E5        30.20S
WORLAND        FAIR      57  35  43 SW5       30.21S
SHERIDAN       FAIR      65  36  34 CALM      30.18S
BUFFALO        FAIR      62  33  33 N5        30.22R
GILLETTE       FAIR      62  39  42 NW14      30.17S
HULETT         FAIR      61  39  44 N8        30.17S
NEWCASTLE      FAIR      61  36  39 NW16G22   30.15F

$$
WYZ014>020-022>026-101>103-031700-
CENTRAL WYOMING

CITY           SKY/WX    TMP DP  RH WIND       PRES   REMARKS
BIG PINEY      FAIR      53  21  28 CALM      30.32S
PINEDALE       FAIR      52  21  30 CALM      30.32S
DUBOIS         FAIR      55  25  30 NE3       30.29S
LANDER         FAIR      57  34  41 VRB5      30.24R
RIVERTON       FAIR      53  38  56 E6        30.26S
CASPER         FAIR      55  35  47 SW12      30.25R
DOUGLAS        FAIR      59  37  44 W15       30.22S

$$
WYZ021-027>030-104>119-031700-
SOUTHERN WYOMING

CITY           SKY/WX    TMP DP  RH WIND       PRES   REMARKS
EVANSTON       FAIR      51  26  37 N3        30.32S
KEMMERER         N/A     52  23  32 CALM      30.33S
FORT BRIDGER   SUNNY     50  23  34 NE3       30.36R
ROCK SPRINGS   FAIR      48  27  44 W3        30.32R
DIXON          FAIR      51  27  39 W6        30.32S
RAWLINS        FAIR      50  31  48 SE6       30.30S
SARATOGA       FAIR      50  28  43 S6        30.31F
LARAMIE        FAIR      42  31  64 NW5       30.29S
CHEYENNE       FAIR      53  31  42 NW18G30   30.23R
TORRINGTON     FAIR      63  38  39 N13G23    30.15S
PINE BLUFFS    FAIR      55  36  47 N18G26    30.20R

$$




USA.gov is the U.S. government's official web portal to all federal, state and local government web resources and services.